Powrót do katalogu

STARLINK-4091

AktywnyŁącznośćVLEO
NORAD 52830·PAYLOAD·🇺🇸 United States

Wystrzelony Jun 17, 2022 z Cape Canaveral Space Force Station

Loading…

Następne Przeloty (najbliższe 24 godziny)

TLE

ŚwieżeSource: CelesTrak SupGP

Epoka: Sep 14, 2026, 22:00 UTC

1 52830C 22062A   26257.91715278  .00042444  00000+0  13650-2 0  2573
2 52830  53.1573 254.8237 0001181  97.0264 146.3215 15.31677684    15

Śledź STARLINK-4091 w czasie rzeczywistym z AllMySat

Download on the App Store